IW9CSJ-13 Weather Reports


time (UTC)temp
C
wind
direction
speed
KPH
gust
KPH
rain 1hr
cm
rain 24hr
cm
rain mn
cm
humidity
%
barometer
mb
20260504050519 16 0.0 0.0 0.00 0.00 0.00 41 1018.4
20260504050517 17 0.0 0.0 0.00 0.00 0.00 41 1018.4
20260504050020 16 0.0 0.0 0.00 0.00 0.00 41 1018.4
20260504045517 16 270 0.0 3.2 0.00 0.00 0.00 41 1018.4
20260504045020 16 269 0.0 4.8 0.00 0.00 0.00 41 1018.4
20260504045018 16 270 0.0 4.8 0.00 0.00 0.00 41 1018.4
20260504044526 16 269 0.0 4.8 0.00 0.00 0.00 41 1018.4
20260504044021 16 293 1.6 4.8 0.00 0.00 0.00 41 1018.4
20260504044015 16 293 1.6 4.8 0.00 0.00 0.00 41 1018.4
20260504043518 16 270 0.0 3.2 0.00 0.00 0.00 41 1018.4
20260504043039 16 270 0.0 1.6 0.00 0.00 0.00 41 1018.2
20260504042521 15 270 1.6 6.4 0.00 0.00 0.00 41 1018.2
20260504042518 16 287 0.0 3.2 0.00 0.00 0.00 41 1018.2
20260504042017 16 287 0.0 3.2 0.00 0.00 0.00 41 1018.2
20260504041519 16 288 3.2 8.0 0.00 0.00 0.00 41 1018.2
20260504041517 16 289 1.6 3.2 0.00 0.00 0.00 41 1018.2
20260504041039 16 288 3.2 8.0 0.00 0.00 0.00 41 1018.2
20260504040523 16 281 1.6 6.4 0.00 0.00 0.00 41 1018.2
20260504040037 16 264 1.6 6.4 0.00 0.00 0.00 40 1018.1
20260504040019 16 264 1.6 6.4 0.00 0.00 0.00 40 1018.1
20260504035520 16 264 1.6 6.4 0.00 0.00 0.00 40 1018.1
20260504035023 16 278 3.2 6.4 0.00 0.00 0.00 40 1018.1
20260504035016 16 278 3.2 6.4 0.00 0.00 0.00 40 1018.1
20260504034523 16 284 3.2 6.4 0.00 0.00 0.00 41 1018.1
20260504034019 16 310 1.6 8.0 0.00 0.00 0.00 41 1018.1
20260504033541 16 303 4.8 8.0 0.00 0.00 0.00 41 1018.2
20260504033021 16 284 3.2 9.7 0.00 0.00 0.00 41 1018.3
20260504032520 15 293 3.2 6.4 0.00 0.00 0.00 41 1018.3
20260504032021 15 293 3.2 6.4 0.00 0.00 0.00 41 1018.3
20260504031520 15 293 8.0 183.5 0.00 0.00 0.00 41 1018.3
20260504031023 15 293 8.0 183.5 0.00 0.00 0.00 41 1018.3
20260504030543 15 293 1.6 4.8 0.00 0.00 0.00 41 1018.3
20260504030518 15 280 0.0 4.8 0.00 0.00 0.00 41 1018.3
20260504030132 15 280 0.0 4.8 0.00 0.00 0.00 41 1018.3
20260504025518 15 270 0.0 3.2 0.00 0.00 0.00 41 1018.3
20260504025515 15 270 0.0 3.2 0.00 0.00 0.00 41 1018.3
20260504025045 15 270 1.6 3.2 0.00 0.00 0.00 40 1018.3
20260504025021 15 270 1.6 6.4 0.00 0.00 0.00 40 1018.3
20260504024517 15 270 1.6 6.4 0.00 0.00 0.00 40 1018.3
20260504024022 16 276 1.6 6.4 0.00 0.00 0.00 40 1018.3
20260504024017 15 276 1.6 4.8 0.00 0.00 0.00 40 1018.4
20260504023556 16 276 1.6 6.4 0.00 0.00 0.00 40 1018.3
20260504023521 16 276 1.6 6.4 0.00 0.00 0.00 40 1018.3
20260504023019 15 303 1.6 11.3 0.00 0.00 0.00 41 1018.4
20260504022525 15 303 1.6 11.3 0.00 0.00 0.00 41 1018.4
20260504022520 15 314 1.6 8.0 0.00 0.00 0.00 41 1018.5
20260504022019 15 283 3.2 9.7 0.00 0.00 0.00 41 1018.5
20260504021541 15 283 3.2 9.7 0.00 0.00 0.00 41 1018.5
20260504021019 15 299 1.6 6.4 0.00 0.00 0.00 41 1018.5
20260504020521 15 293 3.2 8.0 0.00 0.00 0.00 41 1018.2
20260504020519 15 298 3.2 9.7 0.00 0.00 0.00 41 1018.3
20260504020135 15 293 3.2 8.0 0.00 0.00 0.00 41 1018.2
20260504015522 15 306 3.2 9.7 0.00 0.00 0.00 42 1018.3
20260504015520 15 332 6.4 11.3 0.00 0.00 0.00 43 1018.2
20260504015018 15 332 6.4 11.3 0.00 0.00 0.00 43 1018.2
20260504014600 15 319 4.8 11.3 0.00 0.00 0.00 44 1018.3
20260504014519 15 350 4.8 9.7 0.00 0.00 0.00 45 1018.2
20260504014024 15 350 4.8 9.7 0.00 0.00 0.00 45 1018.2
20260504013537 15 358 6.4 11.3 0.00 0.00 0.00 45 1018.2
20260504013519 15 315 3.2 9.7 0.00 0.00 0.00 44 1018.4
20260504012520 15 315 3.2 9.7 0.00 0.00 0.00 44 1018.4
20260504012518 15 323 1.6 9.7 0.00 0.00 0.00 44 1018.4
20260504012023 15 315 3.2 6.4 0.00 0.00 0.00 44 1018.5
20260504011522 15 300 3.2 9.7 0.00 0.00 0.00 43 1018.5
20260504011519 15 315 3.2 6.4 0.00 0.00 0.00 44 1018.5
20260504011019 15 300 3.2 9.7 0.00 0.00 0.00 43 1018.5
20260504010541 15 288 4.8 6.4 0.00 0.00 0.00 43 1018.4
20260504010519 15 294 3.2 8.0 0.00 0.00 0.00 43 1018.5
20260504010133 15 294 3.2 8.0 0.00 0.00 0.00 43 1018.5
20260504005522 15 293 1.6 3.2 0.00 0.00 0.00 43 1018.5
20260504005519 14 0.0 0.0 0.00 0.00 0.00 44 1018.7
20260504005024 14 0.0 0.0 0.00 0.00 0.00 45 1018.7
20260504005020 14 0.0 0.0 0.00 0.00 0.00 44 1018.7
20260504004538 14 0.0 0.0 0.00 0.00 0.00 45 1018.7
20260504004020 14 293 0.0 3.2 0.00 0.00 0.00 45 1018.7
20260504003521 14 293 0.0 3.2 0.00 0.00 0.00 45 1018.7
20260504003518 14 293 1.6 3.2 0.00 0.00 0.00 45 1018.6
20260504003021 14 293 1.6 3.2 0.00 0.00 0.00 45 1018.6
20260504002521 14 0.0 0.0 0.00 0.00 0.00 47 1018.6
20260504002025 14 0.0 0.0 0.00 0.00 0.00 47 1018.6
20260504001516 14 0.0 0.0 0.00 0.00 0.00 47 1018.7
20260504001019 14 0.0 0.0 0.00 0.00 0.00 47 1018.7
20260504001016 14 0.0 0.0 0.00 0.00 0.00 47 1018.7
20260504000519 15 0.0 0.0 0.00 0.00 0.00 46 1018.7
20260504000134 15 286 1.6 4.8 0.00 0.00 0.00 46 1018.7
20260504000024 15 0.0 0.0 0.00 0.00 0.00 46 1018.7
20260503235519 15 0.0 0.0 0.00 0.00 0.00 46 1018.7
20260503235515 15 0.0 0.0 0.00 0.00 0.00 46 1018.7
20260503235020 15 275 1.6 8.0 0.00 0.00 0.00 46 1018.8
20260503234524 15 275 1.6 8.0 0.00 0.00 0.00 46 1018.8
20260503234021 15 274 1.6 9.7 0.00 0.00 0.00 46 1018.8
20260503234016 15 274 1.6 9.7 0.00 0.00 0.00 46 1018.8
20260503233524 15 248 0.0 3.2 0.00 0.00 0.00 46 1018.9
20260503233518 15 252 0.0 3.2 0.00 0.00 0.00 47 1018.9
20260503233023 15 270 1.6 6.4 0.00 0.00 0.00 48 1019.0
20260503233018 15 252 0.0 3.2 0.00 0.00 0.00 47 1018.9
20260503232519 15 270 0.0 1.6 0.00 0.00 0.00 49 1019.0
20260503232024 15 270 0.0 1.6 0.00 0.00 0.00 49 1019.0
20260503231523 14 270 0.0 1.6 0.00 0.00 0.00 50 1018.9
20260503231023 14 270 0.0 1.6 0.00 0.00 0.00 51 1019.2
20260503230520 15 0.0 0.0 0.00 0.00 0.00 50 1019.3
20260503230020 15 0.0 0.0 0.00 0.00 0.00 50 1019.3
20260503230018 15 0.0 0.0 0.00 0.00 0.00 50 1019.3
20260503225523 15 0.0 0.0 0.00 0.00 0.00 50 1019.3
20260503225519 14 270 0.0 3.2 0.00 0.00 0.00 50 1019.2
20260503225023 14 270 0.0 3.2 0.00 0.00 0.00 50 1019.2
20260503225018 14 270 0.0 3.2 0.00 0.00 0.00 51 1019.3
20260503224524 14 270 0.0 3.2 0.00 0.00 0.00 51 1019.3
20260503224020 14 0.0 0.0 0.00 0.00 0.00 51 1019.3
20260503223522 14 0.0 0.0 0.00 0.00 0.00 51 1019.3
20260503223025 14 0.0 0.0 0.00 0.00 0.00 51 1019.3
20260503222537 14 282 0.0 4.8 0.00 0.00 0.00 51 1019.4
20260503222022 15 288 1.6 9.7 0.00 0.00 0.00 53 1019.4
20260503221518 15 0.0 0.0 0.00 0.00 0.00 54 1019.2
20260503221024 15 0.0 0.0 0.00 0.00 0.00 54 1019.2
20260503220518 15 270 0.0 3.2 0.00 0.00 0.00 54 1019.2
20260503220021 14 291 3.2 11.3 0.00 0.00 0.00 56 1019.1
20260503220017 15 277 0.0 4.8 0.00 0.00 0.00 54 1019.1
20260503215519 14 293 0.0 1.6 0.00 0.00 0.00 58 1019.2
20260503215517 14 291 3.2 11.3 0.00 0.00 0.00 56 1019.1
20260503215044 14 293 0.0 1.6 0.00 0.00 0.00 58 1019.2
20260503214516 14 293 1.6 6.4 0.00 0.00 0.00 60 1019.2
20260503214021 14 289 1.6 6.4 0.00 0.00 0.00 60 1019.2
20260503214016 14 289 1.6 6.4 0.00 0.00 0.00 60 1019.2
20260503213521 13 293 1.6 6.4 0.00 0.00 0.00 63 1019.2
20260503213518 13 0.0 0.0 0.00 0.00 0.00 64 1019.2
20260503213023 13 0.0 0.0 0.00 0.00 0.00 64 1019.2
20260503213021 13 0.0 0.0 0.00 0.00 0.00 66 1019.2
20260503212525 13 0.0 0.0 0.00 0.00 0.00 66 1019.2
20260503212519 13 293 0.0 3.2 0.00 0.00 0.00 67 1019.2
20260503212018 13 293 0.0 3.2 0.00 0.00 0.00 67 1019.2
20260503211523 13 293 0.0 3.2 0.00 0.00 0.00 67 1019.2
20260503211025 13 0.0 0.0 0.00 0.00 0.00 67 1019.3
20260503210524 13 0.0 0.0 0.00 0.00 0.00 67 1019.3
20260503210519 13 0.0 0.0 0.00 0.00 0.00 67 1019.3
20260503210021 13 0.0 0.0 0.00 0.00 0.00 67 1019.3
20260503205543 13 290 1.6 6.4 0.00 0.00 0.00 68 1019.2
20260503205518 13 0.0 0.0 0.00 0.00 0.00 68 1019.1
20260503205024 13 0.0 0.0 0.00 0.00 0.00 68 1019.2
20260503205022 13 0.0 0.0 0.00 0.00 0.00 68 1019.1
20260503204519 13 0.0 0.0 0.00 0.00 0.00 68 1019.2
20260503204019 13 0.0 0.0 0.00 0.00 0.00 67 1019.2
20260503203519 13 0.0 0.0 0.00 0.00 0.00 67 1019.3
20260503203021 13 0.0 0.0 0.00 0.00 0.00 67 1019.3
20260503203016 13 0.0 0.0 0.00 0.00 0.00 67 1019.3
20260503202524 13 0.0 0.0 0.00 0.00 0.00 67 1019.3
20260503202020 13 0.0 0.0 0.00 0.00 0.00 66 1019.0
20260503201535 13 0.0 0.0 0.00 0.00 0.00 66 1019.1
20260503201018 13 0.0 0.0 0.00 0.00 0.00 66 1019.1
20260503200521 13 0.0 0.0 0.00 0.00 0.00 65 1019.0
20260503200018 13 0.0 0.0 0.00 0.00 0.00 65 1019.0
20260503195517 13 0.0 0.0 0.00 0.00 0.00 65 1018.9
20260503195016 14 0.0 0.0 0.00 0.00 0.00 64 1019.0
20260503194525 14 0.0 0.0 0.00 0.00 0.00 64 1018.9
20260503194022 14 0.0 0.0 0.00 0.00 0.00 64 1019.0
20260503193542 14 0.0 0.0 0.00 0.00 0.00 63 1019.1
20260503193519 14 0 0.0 3.2 0.00 0.00 0.00 62 1019.0
20260503193026 14 0 0.0 3.2 0.00 0.00 0.00 62 1019.0
20260503193021 15 0.0 0.0 0.00 0.00 0.00 62 1019.0
20260503192515 15 0.0 0.0 0.00 0.00 0.00 62 1019.0
20260503192017 15 113 0.0 1.6 0.00 0.00 0.00 61 1019.0
20260503191519 15 358 1.6 9.7 0.00 0.00 0.00 61 1018.8
20260503191023 15 358 1.6 9.7 0.00 0.00 0.00 61 1018.8
20260503191021 15 4 9.7 29.0 0.00 0.00 0.00 62 1018.7
20260503190535 15 4 9.7 29.0 0.00 0.00 0.00 62 1018.7
20260503190520 15 4 9.7 29.0 0.00 0.00 0.00 62 1018.7
20260503190017 15 354 12.9 19.3 0.00 0.00 0.00 62 1018.6
20260503185517 15 356 8.0 14.5 0.00 0.00 0.00 60 1018.6
20260503185024 15 305 3.2 9.7 0.00 0.00 0.00 62 1018.4
20260503185021 15 1 4.8 11.3 0.00 0.00 0.00 61 1018.5
20260503184522 15 305 3.2 9.7 0.00 0.00 0.00 62 1018.4
20260503184026 14 330 6.4 14.5 0.00 0.00 0.00 64 1018.4
20260503183606 15 307 3.2 8.0 0.00 0.00 0.00 64 1018.4
20260503183519 15 0.0 0.0 0.00 0.00 0.00 64 1018.4
20260503183019 15 100 1.6 9.7 0.00 0.00 0.00 64 1018.4
20260503182522 15 100 1.6 9.7 0.00 0.00 0.00 64 1018.4
20260503182518 15 327 1.6 4.8 0.00 0.00 0.00 65 1018.3
20260503182025 15 121 1.6 8.0 0.00 0.00 0.00 63 1018.3
20260503182022 15 327 1.6 4.8 0.00 0.00 0.00 65 1018.3
20260503181559 15 121 1.6 8.0 0.00 0.00 0.00 63 1018.3
20260503181022 15 135 0.0 1.6 0.00 0.00 0.00 62 1018.3
20260503181016 15 135 0.0 1.6 0.00 0.00 0.00 62 1018.3
20260503180523 15 135 0.0 3.2 0.00 0.00 0.00 62 1018.1
20260503180516 15 135 0.0 3.2 0.00 0.00 0.00 62 1018.1
20260503180022 15 90 0.0 3.2 0.00 0.00 0.00 61 1018.1
20260503180019 15 72 1.6 4.8 0.00 0.00 0.00 61 1018.1
20260503175542 15 72 1.6 4.8 0.00 0.00 0.00 61 1018.1
20260503175519 15 329 1.6 4.8 0.00 0.00 0.00 61 1018.0
20260503175020 15 329 1.6 4.8 0.00 0.00 0.00 61 1018.0
20260503174519 15 340 4.8 11.3 0.00 0.00 0.00 60 1017.9
20260503174019 15 335 6.4 14.5 0.00 0.00 0.00 59 1018.0
20260503173523 15 352 3.2 9.7 0.00 0.00 0.00 58 1018.1
20260503173521 15 0 1.6 6.4 0.00 0.00 0.00 57 1018.1
20260503173024 15 0 1.6 6.4 0.00 0.00 0.00 57 1018.1
20260503173021 15 0 3.2 8.0 0.00 0.00 0.00 56 1018.0
20260503172521 15 313 0.0 4.8 0.00 0.00 0.00 56 1017.9
20260503172518 15 0 3.2 8.0 0.00 0.00 0.00 56 1018.0
20260503172044 15 313 0.0 4.8 0.00 0.00 0.00 56 1017.9
20260503172022 16 5 1.6 9.7 0.00 0.00 0.00 56 1017.9
20260503171525 16 5 1.6 9.7 0.00 0.00 0.00 56 1017.9
20260503171038 16 25 0.0 6.4 0.00 0.00 0.00 56 1017.8
20260503171019 16 87 3.2 9.7 0.00 0.00 0.00 57 1017.8
20260503170518 16 87 3.2 9.7 0.00 0.00 0.00 57 1017.8
20260503170515 16 87 3.2 9.7 0.00 0.00 0.00 57 1017.8
20260503150521 17 24 4.8 11.3 0.00 0.00 0.00 60 1017.4
20260503150519 17 96 3.2 12.9 0.00 0.00 0.00 60 1017.5
20260503131018 18 97 6.4 16.1 0.00 0.00 0.00 58 1018.0
20260503130525 18 41 6.4 12.9 0.00 0.00 0.00 56 1018.1
20260503130518 18 90 4.8 12.9 0.00 0.00 0.00 56 1018.1
20260503110522 18 30 8.0 16.1 0.00 0.00 0.00 57 1018.7
20260503110520 18 3 8.0 17.7 0.00 0.00 0.00 57 1018.8
20260503081520 17 45 9.7 17.7 0.00 0.00 0.00 58 1018.8
20260503081025 17 27 8.0 17.7 0.00 0.00 0.00 59 1018.8
20260503081021 17 80 4.8 12.9 0.00 0.00 0.00 59 1018.8
20260503080520 17 80 4.8 12.9 0.00 0.00 0.00 59 1018.8
20260503072526 16 85 6.4 11.3 0.00 0.00 0.00 61 1018.9
20260503072520 16 66 4.8 12.9 0.00 0.00 0.00 61 1018.9
20260503072019 16 66 4.8 12.9 0.00 0.00 0.00 61 1018.9
20260503072016 16 66 4.8 12.9 0.00 0.00 0.00 61 1018.9
20260503071523 16 69 4.8 9.7 0.00 0.00 0.00 62 1018.9
20260503071021 16 56 6.4 17.7 0.00 0.00 0.00 62 1019.0
20260503070542 16 56 6.4 17.7 0.00 0.00 0.00 62 1019.0
20260503070521 16 47 8.0 16.1 0.00 0.00 0.00 62 1019.1
20260503055024 15 41 4.8 11.3 0.00 0.00 0.00 65 1019.1
20260503054559 15 19 6.4 17.7 0.00 0.00 0.00 66 1019.1
20260503054023 14 62 4.8 11.3 0.00 0.00 0.00 67 1019.1
20260503054021 14 90 4.8 11.3 0.00 0.00 0.00 67 1019.1
20260503053519 14 90 4.8 11.3 0.00 0.00 0.00 67 1019.1
20260503053018 14 56 4.8 11.3 0.00 0.00 0.00 68 1019.1
20260503053016 14 56 4.8 11.3 0.00 0.00 0.00 68 1019.1
20260503052540 14 31 6.4 17.7 0.00 0.00 0.00 68 1019.1
20260503052520 14 74 4.8 11.3 0.00 0.00 0.00 69 1019.2
20260503052020 14 74 4.8 11.3 0.00 0.00 0.00 69 1019.2